Weather History for KPIL - August, 2013

Change the Weather History Date:

Tuesday, August 27, 2013

  Actual Average Record
Temperature  
Mean Temperature 84 °F -  
Max Temperature 90 °F - - ()
Min Temperature 78 °F - - ()
Cooling Degree Days 18    
Growing Degree Days 34 (Base 50)    
Moisture  
Dew Point 75 °F    
Average Humidity 77    
Maximum Humidity 93    
Minimum Humidity 63    
Precipitation  
Precipitation 0.00 in - - ()
Sea Level Pressure  
Sea Level Pressure 30.01 in    
Wind  
Wind Speed 10 mph (ESE)    
Max Wind Speed 16 mph    
Max Gust Speed -    
Visibility 8 miles    
Events      
T = Trace of Precipitation, MM = Missing Value Source: NWS Daily Summary

Daily Weather History Graph

Daily Weather History Graph

Search for Another Location

Airport or City:

Trip Planner

Search our weather history database for the weather conditions in past years. The results will help you decide how hot, cold, wet, or windy it might be!

Date:

Astronomy

Aug. 27, 2013 Rise Set
Actual Time 7:07 AM CDT 7:53 PM CDT
Civil Twilight 6:43 AM CDT 8:17 PM CDT
Nautical Twilight 6:15 AM CDT 8:45 PM CDT
Astronomical Twilight 5:47 AM CDT 9:13 PM CDT
Moon No Moon Rise 1:24 PM CDT (8/27)
Length of Visible Light 13h 33m
Length of Day
12h 46m
Waning Gibbous, 57% of the Moon is Illuminated
Aug 27
Waning Gibbous
Aug 28
Last Quarter
Sep 5
New
Sep 12
First Quarter
Sep 19
Full

Hourly Weather History & Observations

Time (CDT) Temp. Heat Index Dew Point Humidity Pressure Visibility Wind Dir Wind Speed Gust Speed Precip Events Conditions
12:53 AM 81.0 °F 87.3 °F 75.9 °F 85% 30.00 in 8.0 mi SE 10.4 mph - N/A   Clear
1:53 AM 81.0 °F 87.3 °F 75.9 °F 85% 29.99 in 8.0 mi SE 10.4 mph - N/A   Clear
2:53 AM 81.0 °F 87.3 °F 75.9 °F 85% 29.98 in 8.0 mi SE 8.1 mph - N/A   Clear
3:53 AM 80.1 °F 85.4 °F 75.9 °F 87% 29.97 in 8.0 mi SE 9.2 mph - N/A   Clear
4:53 AM 79.0 °F - 75.0 °F 88% 29.97 in 8.0 mi SE 6.9 mph - N/A   Clear
5:53 AM 79.0 °F - 75.9 °F 90% 29.97 in 8.0 mi SE 5.8 mph - N/A   Clear
6:53 AM 78.1 °F - 75.9 °F 93% 30.00 in 8.0 mi SE 4.6 mph - N/A   Clear
7:53 AM 80.1 °F 85.8 °F 77.0 °F 90% 30.01 in 6.0 mi SE 5.8 mph - N/A   Clear
8:53 AM 84.0 °F 93.7 °F 77.0 °F 79% 30.02 in 7.0 mi SE 9.2 mph - N/A   Clear
9:53 AM 86.0 °F 95.1 °F 75.0 °F 70% 30.04 in 8.0 mi SE 12.7 mph - N/A   Clear
10:53 AM 87.1 °F 97.3 °F 75.9 °F 69% 30.04 in 8.0 mi ESE 11.5 mph - N/A   Clear
11:53 AM 88.0 °F 98.5 °F 75.9 °F 67% 30.04 in 8.0 mi ESE 13.8 mph - N/A   Clear
12:53 PM 89.1 °F 99.1 °F 75.0 °F 63% 30.04 in 8.0 mi East 16.1 mph - N/A   Clear
1:53 PM 88.0 °F 97.5 °F 75.0 °F 65% 30.03 in 8.0 mi East 13.8 mph - N/A   Clear
2:53 PM 88.0 °F 97.5 °F 75.0 °F 65% 30.01 in 8.0 mi ESE 15.0 mph - N/A   Clear
3:53 PM 88.0 °F 97.5 °F 75.0 °F 65% 30.00 in 8.0 mi ESE 16.1 mph - N/A   Clear
4:53 PM 88.0 °F 96.5 °F 73.9 °F 63% 30.00 in 8.0 mi ESE 15.0 mph - N/A   Clear
5:53 PM 86.0 °F 93.8 °F 73.9 °F 67% 30.01 in 8.0 mi ESE 13.8 mph - N/A   Clear
6:53 PM 84.9 °F 93.3 °F 75.0 °F 72% 30.00 in 8.0 mi ESE 9.2 mph - N/A   Clear
7:53 PM 84.0 °F 91.9 °F 75.0 °F 74% 29.99 in 8.0 mi East 10.4 mph - N/A   Clear
8:53 PM 82.9 °F 90.2 °F 75.0 °F 77% 30.00 in 10.0 mi ESE 6.9 mph - N/A   Clear
9:53 PM 82.9 °F 90.8 °F 75.9 °F 79% 30.01 in 10.0 mi ESE 6.9 mph - N/A   Scattered Clouds
10:14 PM 82.4 °F 89.5 °F 75.2 °F 79% 30.01 in 10.0 mi ESE 9.2 mph - N/A   Mostly Cloudy
10:22 PM 82.4 °F 89.5 °F 75.2 °F 79% 30.01 in 10.0 mi ESE 6.9 mph - N/A   Scattered Clouds
10:53 PM 82.9 °F 91.8 °F 77.0 °F 82% 30.01 in 10.0 mi ESE 9.2 mph - N/A   Mostly Cloudy
11:09 PM 82.4 °F 89.5 °F 75.2 °F 79% 30.02 in 10.0 mi ESE 9.2 mph - N/A   Scattered Clouds
11:53 PM 82.0 °F 89.4 °F 75.9 °F 82% 30.02 in 10.0 mi ESE 8.1 mph - N/A   Clear